Weather History for Sheridan, WY

Change the Weather History Date:

Wednesday, January 4, 2012

  Actual Average Record
Temperature  
Mean Temperature 41 °F 23 °F  
Max Temperature 58 °F 36 °F 59 °F (1948)
Min Temperature 24 °F 11 °F -30 °F (1972)
Degree Days  
Heating Degree Days 24 42  
Month to date heating degree days 131 168  
Since 1 July heating degree days 2968 3351  
Cooling Degree Days 0 0  
Month to date cooling degree days 0 0  
Year to date cooling degree days 0 0  
Moisture  
Dew Point 28 °F    
Average Humidity 67    
Maximum Humidity 82    
Minimum Humidity 51    
Precipitation  
Precipitation 0.00 in 0.02 in 0.18 in (1916)
Month to date precipitation 0.00 0.07  
Year to date precipitation 0.00 0.07  
Sea Level Pressure  
Sea Level Pressure 30.23 in    
Wind  
Wind Speed 2 mph (SSW)    
Max Wind Speed 9 mph    
Max Gust Speed 15 mph    
Visibility 10 miles    
Events      
T = Trace of Precipitation, MM = Missing Value Source: NWS Daily Summary

Daily Weather History Graph

Daily Weather History Graph

Search for Another Location

Airport:

Trip Planner

Search our weather history database for the weather conditions in past years. The results will help you decide how hot, cold, wet, or windy it might be!

Date:

Astronomy

Jan. 04, 2012 Rise Set
Actual Time 7:45 AM MST 4:40 PM MST
Civil Twilight 7:11 AM MST 5:13 PM MST
Nautical Twilight 6:35 AM MST 5:50 PM MST
Astronomical Twilight 5:59 AM MST 6:25 PM MST
Moon 1:06 PM MST (1/4) 3:34 AM MST (1/4)
Length of Visible Light 10h 01m
Length of Day
8h 55m
Waxing Gibbous, 81% of the Moon is Illuminated
Jan 4
Waxing Gibbous
Jan 9
Full
Jan 16
Last Quarter
Jan 23
New
Jan 30
First Quarter

Hourly Weather History & Observations

Time (MST) Temp. Windchill Dew Point Humidity Pressure Visibility Wind Dir Wind Speed Gust Speed Precip Events Conditions
12:53 AM 26.6 °F 22.6 °F 21.2 °F 80% 30.21 in 10.0 mi NNW 3.5 mph - N/A   Clear
1:53 AM 25.0 °F 20.7 °F 19.9 °F 81% 30.29 in 10.0 mi South 3.5 mph - N/A   Clear
2:53 AM 27.0 °F - 21.0 °F 78% 30.28 in 10.0 mi Calm Calm - N/A   Clear
3:53 AM 28.0 °F - 21.0 °F 75% 30.28 in 10.0 mi Calm Calm - N/A   Clear
4:53 AM 28.9 °F - 21.9 °F 75% 30.28 in 10.0 mi Calm Calm - N/A   Clear
5:53 AM 30.0 °F 25.2 °F 23.0 °F 75% 30.29 in 10.0 mi SSW 4.6 mph - N/A   Clear
6:53 AM 30.0 °F 26.5 °F 23.0 °F 75% 30.30 in 10.0 mi SSE 3.5 mph - N/A   Clear
7:53 AM 32.0 °F 28.7 °F 25.0 °F 75% 30.31 in 10.0 mi WSW 3.5 mph - N/A   Mostly Cloudy
8:53 AM 30.2 °F 26.7 °F 24.8 °F 80% 30.21 in 10.0 mi North 3.5 mph - N/A   Clear
9:53 AM 34.0 °F - 28.0 °F 79% 30.30 in 10.0 mi Calm Calm - N/A   Clear
10:53 AM 44.1 °F - 32.0 °F 63% 30.26 in 10.0 mi Calm Calm - N/A   Clear
11:53 AM 44.1 °F - 33.1 °F 65% 30.25 in 10.0 mi Calm Calm - N/A   Clear
12:53 PM 48.9 °F - 34.0 °F 56% 30.21 in 10.0 mi ESE 4.6 mph - N/A   Clear
1:53 PM 53.6 °F - 39.2 °F 58% 30.14 in 10.0 mi Calm Calm - N/A   Clear
2:53 PM 57.0 °F - 39.0 °F 51% 30.19 in 10.0 mi Calm Calm - N/A   Clear
3:53 PM 48.0 °F - 37.0 °F 66% 30.22 in 10.0 mi Calm Calm - N/A   Clear
4:53 PM 41.0 °F 38.0 °F 30.0 °F 65% 30.22 in 10.0 mi South 4.6 mph - N/A   Clear
5:53 PM 37.0 °F 34.5 °F 30.0 °F 76% 30.23 in 10.0 mi WSW 3.5 mph - N/A   Clear
6:53 PM 35.1 °F - 28.9 °F 78% 30.23 in 10.0 mi Calm Calm - N/A   Clear
7:53 PM 35.1 °F - 28.9 °F 78% 30.22 in 10.0 mi Calm Calm - N/A   Clear
8:53 PM 34.0 °F - 28.9 °F 82% 30.22 in 10.0 mi Calm Calm - N/A   Clear
9:53 PM 34.0 °F 31.0 °F 28.0 °F 79% 30.21 in 10.0 mi SSW 3.5 mph - N/A   Clear
10:53 PM 37.9 °F 32.1 °F 28.9 °F 70% 30.14 in 10.0 mi South 8.1 mph - N/A   Clear
11:53 PM 36.0 °F 32.1 °F 28.0 °F 73% 30.12 in 10.0 mi SSW 4.6 mph - N/A   Clear